Location: Killam
(52.7910°N, 111.8608°W)
Time: 20:17:11
(UTC+00:00)

A-11 Canister half - Pass Details

Date: 17 February 2026
Orbit: 1525 x 1683 km, 47.3° (Epoch: 5 March)

Event Time Altitude Azimuth Distance (km) Brightness Sun altitude
Rises 23:15:39 0° 207° (SSW) 4,722 12.8 11.0°
Reaches altitude 10° 23:19:10 10° 198° (SSW) 3,722 12.1 10.5°
Maximum altitude 23:26:56 31° 141° (SE) 2,449 10.2 9.6°
Drops below altitude 10° 23:34:38 10° 85° (E) 3,694 10.5 8.6°
Sets 23:38:06 0° 75° (ENE) 4,682 10.9 8.2°
